Regional Weather Roundup
Issued by NWS Portland, ME

Current Version | Previous Version | Text Only | Print | Product List | Glossary Off
Versions: 1 2 3 4 5 6 7 8 9 10 11 12 13 14 15 16 17 18 19 20 21 22 23 24 25 26 27 28 29 30 31 32 33 34 35 36 37 38 39 40 41 42 43 44 45 46 47 48 49 50
000 ASUS41 KGYX 182205 RWRGYX WEATHER ROUNDUP FOR MAINE AND NEW HAMPSHIRE NATIONAL WEATHER SERVICE GRAY ME 600 PM EDT SAT AUG 18 2018 MEZ002-005-006-010-012-015-018-020-021-024-026-027-029-182300- MAINE CITY SKY/WX TMP DP RH WIND PRES REMARKS PORTLAND CLOUDY 71 65 81 N12 29.83R SANFORD LGT RAIN 70 67 90 NE10 29.84R BAR HARBOR PTSUNNY 67 61 81 N13 29.84R WISCASSET PTSUNNY 70 63 78 VRB5 29.85R ROCKLAND CLOUDY 67 63 87 VRB7 29.84R FRYEBURG CLOUDY 67 63 87 NE7 29.88R LEWISTONAUBURN CLOUDY 67 63 87 N15 29.87R AUGUSTA CLOUDY 68 63 84 N10 29.87R WATERVILLE CLOUDY 68 60 75 NE12 29.86R BANGOR CLOUDY 69 62 78 N12 29.87R GREENVILLE N/A 67 56 67 N12 29.90R MILLINOCKET CLOUDY 70 59 68 N5 29.89R HOULTON FAIR 69 62 78 NE7 29.86R PRESQUE ISLE FAIR 73 56 54 N7 29.90R FRENCHVILLE FAIR 74 56 53 N8 29.90R CARIBOU FAIR 75 54 47 NE6 29.89R $$ NHZ002-005-008-009-011-012-014-182300- NEW HAMPSHIRE CITY SKY/WX TMP DP RH WIND PRES REMARKS PORTSMOUTH CLOUDY 73 66 76 NE15G23 29.80R ROCHESTER CLOUDY 75 69 81 N10 29.81R NASHUA PTSUNNY 75 68 78 NW9 29.82R MANCHESTER PTSUNNY 76 64 66 NW12 29.80R CONCORD CLOUDY 74 65 73 NW6 29.83R LACONIA CLOUDY 71 64 78 N3 29.85R PLYMOUTH CLOUDY 69 62 76 W3 29.84S BERLIN CLOUDY 68 62 81 NE5 29.92R WHITEFIELD CLOUDY 68 62 81 N3 29.91R JAFFREY CLOUDY 72 65 78 N6 29.86R KEENE PTSUNNY N/A N/A N/A N15 29.84R LEBANON CLOUDY 70 61 73 N5 29.87S MT WASHINGTON DRZL/FOG 48 48 100 NE23 N/A VSB 1/16 $$ VTZ005-007-008-182300- VERMONT CITY SKY/WX TMP DP RH WIND PRES REMARKS ST JOHNSBURY N/A 68 61 78 MISG 29.89R MONTPELIER CLOUDY 67 62 84 N9 29.95R BURLINGTON CLOUDY 71 62 73 N5 29.91S $$ MAZ007-012-024-CTZ003-RIZ002-NYZ038-NYZ072-182300- SOUTHERN NEW ENGLAND AND NY CITY SKY/WX TMP DP RH WIND PRES REMARKS BOSTON LGT RAIN 75 71 87 VRB3 29.81R WORCESTER FAIR 71 68 90 CALM 29.84R NANTUCKET FAIR 76 75 97 SW7 29.79S PROVIDENCE TSTM 73 72 96 NE6 29.79F FOG HARTFORD PTSUNNY 75 72 90 N6 29.80R ALBANY PTSUNNY 73 62 68 N13 29.87R NEW YORK CITY PTSUNNY 82 67 60 NW15G24 29.76R $$ ANZ081-ANZ082-ANZ150-NHZ014-MEZ023>029-182300- COASTAL MARINE OBSERVATIONS STATION/POSITION TIME TEMP WIND PRES WAVE AIR SEA DIR/SP/G HT/PER (UTC) (F) (DEG/KT/KT) (MB) (FT/S) MOUNT DESERT ROC 2200 60 360/ 16/ 16 1009.9R MATINICUS ROCK 2100 63 10/ 18/ 18 1009.2R ISLE OF SHOALS 2100 74 250/ 7/ 7 1007.7S JEFFREYS LEDGE 2136 71 N/A 2/ 5 $$ .............KEY.............. WCI - WIND CHILL TC - TEMPERATURE IN CELSIUS VSB - VISIBILITY IN MILES HX - HEAT INDEX FAIR- INDICATES FEW OR NO CLOUDS BELOW 12,000 FT, WITH NO SIGNIFICANT WEATHER AND/OR OBSTRUCTIONS TO VISIBILITY.

USA.gov is the U.S. government's official web portal to all federal, state and local government web resources and services.